Location: ???????
(55.3754°N, 39.3545°E)
Time: 18:47:35
(UTC+00:00)

SL-16 R/B - Pass Details

Date: 14 April 2026
Orbit: 839 x 849 km, 71.0° (Epoch: 19 May)

Event Time Altitude Azimuth Distance (km) Brightness Sun altitude
Exits shadow 19:31:20 43° 152° (SSE) 1,169 2.4 -20.9°
Maximum altitude 19:32:32 51° 114° (ESE) 1,062 2.4 -21.0°
Drops below altitude 10° 19:38:00 10° 40° (NE) 2,478 4.9 -21.4°
Sets 19:40:31 0° 36° (NE) 3,419 5.7 -21.6°
